User: anonymous   Login
Location: Unspecified
(0.0000°N, 0.0000°E)
Time: 09:26:00
(UTC+00:00)
Language:

YAOGAN 1 - Orbit

View from above orbital plane
View from above orbital plane
View from above satellite
View from above satellite

Ground track
Ground track

The orbit data is extracted from the following two-line orbital elements,

1 29092U 06015A   18018.52319346 +.00000044 +00000-0 +12054-4 0  9999
2 29092 097.9970 035.0439 0001423 092.5025 267.6351 14.82876613634179
Epoch (UTC): 18 January 2018 12:33:23
Eccentricity: 0.0001423
inclination: 97.9970°
perigee height: 619 km
apogee height: 621 km
right ascension of ascending node: 35.0439°
argument of perigee: 92.5025°
revolutions per day: 14.82876613
mean anomaly at epoch: 267.6351°
orbit number at epoch: 63417

The dashed part of the orbit path shows where the satellite is in the earth's shadow,  

DLR